Location: B�rgermoos
(47.6500°N, 9.0667°E)
Time: 09:24:46
(UTC+00:00)

A-11 Canister half - Pass Details

Date: 06 August 2021
Orbit: 1526 x 1683 km, 47.3° (Epoch: 20 September)

Event Time Altitude Azimuth Distance (km) Brightness Sun altitude
Rises 10:22:56 0° 244° (WSW) 4,927 11.6 56.0°
Reaches altitude 10° 10:26:06 10° 243° (WSW) 3,942 11.3 56.3°
Maximum altitude 10:36:13 75° 160° (SSE) 1,723 11.1 57.0°
Drops below altitude 10° 10:46:13 10° 78° (ENE) 3,893 11.3 57.7°
Sets 10:49:19 0° 77° (ENE) 4,862 11.7 57.8°
